Regional Weather Roundup
Issued by NWS

Home | Current Version | Previous Version | Graphics & Text | Print | Product List | Glossary On
Versions: 1 2 3 4 5 6 7 8 9 10 11 12 13 14 15 16 17 18 19 20 21 22 23 24 25 26 27 28 29 30 31 32 33 34 35 36 37 38 39 40 41 42 43 44 45 46 47 48 49 50
316
ASUS43 KDMX 112103
RWRIA

WEATHER ROUNDUP FOR IOWA
NATIONAL WEATHER SERVICE DES MOINES IA
300 PM CST THU FEB 11 2016

NOTE: "FAIR" INDICATES FEW OR NO CLOUDS BELOW 12,000 FEET WITH NO
SIGNIFICANT WEATHER AND/OR OBSTRUCTIONS TO VISIBILITY.

* - THESE STATIONS ARE NOT NWS STATIONS...THUS NOT UNDER NWS
QUALITY CONTROL.  THEY ALSO DO NOT REPORT WEATHER SUCH
AS PRECIPITATION OR FOG.

IAZ001>003-012>014-020>022-031>034-043>046-112200-
   NORTHWEST IOWA

CITY           SKY/WX    TMP DP  RH WIND       PRES   REMARKS
CARROLL *      CLOUDY    16   7  67 SE8       30.22S WCI   5
CHEROKEE *     LGT SNOW  16  11  83 SE7       30.20F WCI   6
DENISON *      LGT SNOW  18   9  68 SE6       30.18F WCI   9
LE MARS *      LGT SNOW  19  18  93 SE9       30.19F WCI   9
ORANGE CITY *  LGT SNOW  16  14  93 SE7       30.17F WCI   6
SHELDON *      LGT SNOW  14  12  92 S9        30.17F VSB 3/4 WCI   2
SIOUX CITY     FLURRIES  19  12  74 SE9       30.19F WCI   8
SPENCER        LGT SNOW  14   8  77 S9        30.21F VSB 1   WCI   2
STORM LAKE *   LGT SNOW  14   7  73 S9        30.19F WCI   2
$$

IAZ055>058-069>071-079>083-090>094-112200-
   SOUTHWEST IOWA

CITY           SKY/WX    TMP DP  RH WIND       PRES   REMARKS
ATLANTIC *     MIX PCPN  21  10  63 SE6       30.21S WCI  14
AUDUBON *      PTSUNNY   19   9  63 SE5       30.21R WCI  13
CLARINDA *     CLOUDY    30  18  59 S6        30.22F WCI  24
COUNCIL BLFS * LGT SNOW  23  18  80 S7        30.18F WCI  15
CRESTON *      CLOUDY    27   7  43 SE7       30.21F WCI  19
HARLAN  *      CLOUDY    19  12  73 SE6       30.22F WCI  11
LAMONI         CLOUDY    27   7  42 SE7       30.20F WCI  19
RED OAK *      PTSUNNY   28  18  64 S9        30.20F WCI  20
SHENANDOAH *   CLOUDY    32  19  59 S12       30.20F WCI  23
$$

IAZ047>049-059>061-072>074-084-112200-
   CENTRAL IOWA

CITY           SKY/WX    TMP DP  RH WIND       PRES   REMARKS
AMES           CLOUDY    17   4  56 SE5       30.25F WCI  10
ANKENY *       CLOUDY    19   5  53 SE7       30.25F WCI  10
BOONE *        FLURRIES  14   5  67 S6        30.22F WCI   5
CHARITON *     CLOUDY    23   9  54 VRB6      30.23F WCI  16
DES MOINES     CLOUDY    20   4  50 S7        30.25F WCI  11
GRINNELL*      CLOUDY    21   9  58 E6        30.26F WCI  14
KNOXVILLE *    CLOUDY    19   3  49 E5        30.23F WCI  13
MARSHALLTOWN   CLOUDY    16   4  59 SE7       30.24F WCI   6
NEWTON *       CLOUDY    18   5  57 SE7       30.24F WCI   8
PELLA *        SUNNY     21   6  54 E5        30.27F WCI  14
$$

IAZ004>006-015-016-023>025-035-036-112200-
   NORTH CENTRAL IOWA

CITY           SKY/WX    TMP DP  RH WIND       PRES   REMARKS
ALGONA *       MOSUNNY   14   5  67 S10       30.23S WCI   1
CLARION *      MOSUNNY   12   3  67 S9        30.24S WCI   0
ESTHERVILLE    LGT SNOW  13   6  74 S10       30.21S WCI   0
FORT DODGE *   CLOUDY    14   1  57 S6        30.25S WCI   5
MASON CITY     PTSUNNY   12   3  67 S8        30.24F WCI   0
FOREST CITY *    N/A     12   3  67 S5        30.24R WCI   4
WEBSTER CITY * PTSUNNY   14   3  62 SE5       30.22S WCI   6
IOWA FALLS *     N/A     16   5  62 SE6       30.24F WCI   7
$$

IAZ007>011-017>019-026>030-037>042-050>054-066-112200-
   NORTHEAST IOWA

CITY           SKY/WX    TMP DP  RH WIND       PRES   REMARKS
CEDAR RAPIDS   SUNNY     21   6  52 SE5       30.26F WCI  15
CHARLES CITY * PTSUNNY   12   1  62 S9        30.26S WCI   0
CLINTON *      SUNNY     25   7  46 SW5       30.30F WCI  19
DECORAH *      SUNNY     14  -2  48 VRB5      30.24F WCI   6
DUBUQUE        SUNNY     17   2  51 SW5       30.26F WCI  10
MONTICELLO *   SUNNY     19   0  42 CALM      30.28F
OELWEIN *      SUNNY     14   0  52 S6        30.26F WCI   5
WATERLOO       CLOUDY    15   3  59 S6        30.27F WCI   6
$$

IAZ064-065-067-068-078-112200-
   EAST CENTRAL IOWA

CITY           SKY/WX    TMP DP  RH WIND       PRES   REMARKS
DAVENPORT      SUNNY     23   2  40 CALM      30.30F
IOWA CITY      MOSUNNY   22   4  46 CALM      30.30F
MT. PLEASANT * PTSUNNY   27  10  48 E5        30.28F WCI  22
MUSCATINE *    MOSUNNY   25   1  36 CALM      30.31F
QUAD CITIES    SUNNY     24   1  36 W5        30.30F WCI  18
$$

IAZ062-063-075>077-085>089-095>099-112200-
   SOUTHEAST IOWA

CITY           SKY/WX    TMP DP  RH WIND       PRES   REMARKS
BURLINGTON     SUNNY     22   6  50 E3        30.29F
FAIRFIELD *    MOSUNNY   23   7  50 E3        30.28F
FORT MADISON * CLOUDY    23   9  54 E3        30.29F
KEOKUK *       SUNNY     23   9  54 E6        30.29F WCI  16
OSKALOOSA *      N/A     22  11  61 SE6       30.27F WCI  15
OTTUMWA        PTSUNNY   22   8  55 CALM      30.26F
WASHINGTON *   MOSUNNY   23   7  50 SE5       30.29F WCI  17
$$

ABBREVIATIONS USED IN REMARKS
   TC - TEMPERATURES IN CELSIUS
  WCI - WIND CHILL INDEX
   HX - HEAT INDEX
  VSB - VISIBILITY
$$





USA.gov is the U.S. government's official web portal to all federal, state and local government web resources and services.